Other Public Products
Issued by NWS Grand Forks, ND

Home | Current Version | Previous Version | Text Only | Print | Product List | Glossary On
Versions: 1 2 3 4 5 6 7 8 9 10 11 12 13 14 15 16 17 18 19 20 21 22 23 24 25 26 27 28 29 30 31 32 33 34 35 36 37 38 39 40 41 42 43 44 45 46 47 48 49 50
276
FPUS83 KFGF 241631
OPUFGF
PRAIRIE TO PINES WEATHER ROUNDUP
NATIONAL WEATHER SERVICE EASTERN NORTH DAKOTA/GRAND FORKS ND
1100 AM CDT TUE MAY 24 2016

 **SATELLITE DATA USED TO AUGMENT SKY COVER AT AUTOMATED STATIONS**
 *****  WEATHER ACROSS EASTERN NORTH DAKOTA  *****

CITY           SKY/WX    TMP DP  RH WIND       PRES   REMARKS
GRAND FORKS    MOSUNNY   71  54  54 W5        29.84R
GRAND FORKS AF SUNNY     69  53  57 N6        29.85R
GRAND CITY NWS   N/A     73 N/A N/A NW3         N/A
BUXTON           N/A     74  52  45 W2          N/A
DEVILS LAKE    SUNNY     69  45  41 SW7       29.88R
FARGO          SUNNY     79  47  32 S9        29.83R
WAHPETON ARPT  SUNNY     73  46  38 E10G18    29.85S
$$

 *****  WEATHER ACROSS CENTRAL AND WESTERN NORTH DAKOTA  *****

CITY           SKY/WX    TMP DP  RH WIND       PRES   REMARKS
JAMESTOWN      SUNNY     69  49  48 S5        29.87R
BISMARCK       SUNNY     69  47  45 CALM      29.89S
MINOT          SUNNY     69  43  38 SW8       29.86S
MINOT AFB      SUNNY     67  44  43 S7        29.85S
GARRISON         N/A     66  44  45 W12       29.89R
WILLISTON      PTSUNNY   59  42  53 W8        29.88S
DICKINSON      MOSUNNY   61  39  44 W9        29.90R
HETTINGER      SUNNY     65  40  39 N3        29.93R
$$

 *****  OTHER OBSERVATIONS NORTHEAST NORTH DAKOTA  *****

CITY           SKY/WX    TMP DP  RH WIND       PRES   REMARKS
WALHALLA       FAIR      72  46  40 E7        29.86R
LANGDON        FAIR      73  45  35 SE5       29.88R
CAVALIER       FAIR      68  50  52 NE3       29.86R
GRAFTON        FAIR      70  52  52 VRB5      29.87R
CANDO          FAIR      72  45  37 SW7       29.89S
FORT TOTTEN      N/A     72  47  40 N5        29.95S
ROLLA            N/A     68  39  34 S6        29.88S
RUGBY          FAIR      68  41  37 SW7       29.87S
 ***** THE ABOVE OBSERVATIONS ARE NON NWS ARE NOT QUALITY
        CONTROLLED AND MAY MIS-REPORT RAIN FOR SNOW...
$$

 *****  OTHER OBSERVATIONS SOUTHEAST NORTH DAKOTA *****

CITY           SKY/WX    TMP DP  RH WIND       PRES   REMARKS
COOPERSTOWN    NOT AVBL
VALLEY CITY    FAIR      70  48  46 S6        29.89R
OAKES            N/A    N/A N/A N/A MISG        N/A
GWINNER        FAIR      77  48  36 SE9       29.86R
SHEYENNE NWR     N/A     77  49  37 SE12      29.95
BUFFALO          N/A     72  53  50 SW3         N/A
WYNDMERE         N/A     77  54  44 E13         N/A
 ***** THE ABOVE OBSERVATIONS ARE NON NWS ARE NOT QUALITY
       CONTROLLED AND MAY MIS-REPORT RAIN FOR SNOW...
$$

  *****  WEATHER ACROSS NORTHERN MINNESOTA  *****

CITY           SKY/WX    TMP DP  RH WIND       PRES   REMARKS
FLAG ISLAND    CLOUDY    64  52  63 CALM      29.83R
WARROAD        CLOUDY    64  54  68 W6        29.86R
ROSEAU         CLOUDY    68  54  60 NW5       29.85S
HALLOCK        PTSUNNY   70  52  52 E9        29.84R
THF RVR FALLS  SUNNY     70  48  46 SW3       29.86S
HALSTAD        NOT AVBL
FOSSTON          N/A     68  54  60 S8        29.86R
BAUDETTE       CLOUDY    71  48  43 NW9       29.84R
WASKISH        CLOUDY    70  52  52 CALM      29.86F
CROOKSTON      SUNNY     70  54  56 SW6       29.85R
$$
  *****  WEATHER ACROSS CENTRAL AND WEST MINNESOTA  *****

CITY           SKY/WX    TMP DP  RH WIND       PRES   REMARKS
BEMIDJI        SUNNY     67  52  57 E7        29.86F
PARK RAPIDS    SUNNY     72  47  40 N8        29.88F
WADENA         MOSUNNY   72  54  53 E5        29.88S
DETROIT LAKES  SUNNY     72  50  46 S10       29.88S
MOORHEAD       SUNNY     75  48  38 SE10      29.85R
FERGUS FALLS   SUNNY     73  54  49 E9        29.83S
ELBOW LAKE     FAIR      74  58  56 SE9       29.86R
MORRIS MN      SUNNY     75  59  57 SE6       29.84S
STAPLES        MOSUNNY   73  48  40 NE8       29.89R
WHEATON        SUNNY     79  61  53 SE6       29.86R
$$
  *****  WEATHER ELSEWHERE ACROSS MINNESOTA  *****

CITY           SKY/WX    TMP DP  RH WIND       PRES   REMARKS
DULUTH         MOSUNNY   66  56  70 E10       29.86S
INTRNTL FALLS  CLOUDY    68  56  65 SW7       29.86R
ELY            MOSUNNY   66  57  72 CALM      29.88R
CLOQUET        SUNNY     68  55  64 NE9       29.86S
BRAINERD       SUNNY     72  52  49 NE7       29.88R
HIBBING        MOSUNNY   69  52  54 CALM      29.86S
ALEXANDRIA     SUNNY     72  60  66 E8        29.88R
SAINT CLOUD    MOSUNNY   70  62  76 CALM      29.87S
MINNEAPOLIS    PTSUNNY   77  60  55 W9        29.87R
$$

  *****  WEATHER ACROSS SOUTH DAKOTA  *****

CITY           SKY/WX    TMP DP  RH WIND       PRES   REMARKS
SIOUX FALLS    MOSUNNY   71  61  70 S5        29.87R
BROOKINGS      CLOUDY    64  61  90 CALM      29.87R
WATERTOWN      PTSUNNY   71  60  68 VRB3      29.87R
HURON          SUNNY     71  56  58 VRB5      29.85S
SISSETON         N/A     74  55  51 E6        29.84S
ABERDEEN       SUNNY     74  51  44 E12G21    29.85F
MITCHELL       SUNNY     74  56  53 VRB3      29.85S
PIERRE         SUNNY     67  51  56 CALM      29.86R
MOBRIDGE       SUNNY     69  44  40 CALM      29.87S
RAPID CITY     SUNNY     64  41  42 E5        29.92F
$$

  *****  SOME WEATHER IN NEARBY STATES *****

CITY           SKY/WX    TMP DP  RH WIND       PRES   REMARKS
GLASGOW MT     CLOUDY    54  43  66 W13       29.86R
GREAT FALLS MT CLOUDY    47  39  74 S5        29.92R
CHEYENNE WY    MOSUNNY   57  42  57 S23G29    29.99R
SCOTTSBLUFF NE PTSUNNY   62  45  53 SE5       29.94F
OMAHA NE       CLOUDY    69  64  84 VRB3      29.88F
DES MOINES IA  CLOUDY    70  62  76 SW7       29.93R
DAVENPORT IA   CLOUDY    80  59  48 S14       29.96S
CHICAGO IL     PTSUNNY   78  55  44 S15       29.99S
EAU CLAIRE WI  PTSUNNY   73  62  68 SW9       29.88R
LA CROSSE WI   CLOUDY    74  59  59 SW9       29.91R
$$

  *****  SOME NATIONAL WEATHER *****

CITY           SKY/WX    TMP DP  RH WIND       PRES   REMARKS
LA GUARDIA NY  CLOUDY    67  59  75 VRB5      29.92R
RALEIGH NC     SUNNY     77  56  48 W10       30.12F
ATLANTA GA     MOSUNNY   80  54  40 N8        30.17S
NEW ORLEANS LA MOSUNNY   85  68  56 S9        30.09S
OKLAHOMA CITY  MOSUNNY   82  70  66 S17G28    29.90R
ALBUQUERQUE NM MOSUNNY   71  22  15 NW3       30.03S
SALT LAKE CITY PTSUNNY   64  39  39 S8        29.81R
LOS ANGELES CA PTSUNNY   62  50  64 S5        29.98R
BOISE ID       MOSUNNY   56  40  55 VRB5      29.87R
SEATTLE WA     CLOUDY    56  52  86 W5        29.98R
$$

*** WEATHER ACROSS MANITOBA...SASKATCHEWAN AND ONTARIO ***
                ***ONTARIO***

CITY           SKY/WX    TMP DP  RH WIND       PRES   REMARKS
GERALDTON      CLOUDY    52  43  71 NE9G17    29.98R
THUNDER BAY    LGT RAIN  59  57  94 E7        29.90R FOG
SIOUX LOOKOUT  PTSUNNY   61  54  77 E7        29.89F
TORONTO        MOSUNNY   77  48  36 VRB6      29.97F
BIG TROUT LK   CLOUDY    39  34  81 SE6       30.11R
PICKLE LAKE    PTSUNNY   45  39  81 E14       30.00R
DRYDEN         MOSUNNY   64  55  72 NE10G17   29.86R
KENORA         CLOUDY    70  48  46 W9        29.85R
$$
                *** MANITOBA***

CITY           SKY/WX    TMP DP  RH WIND       PRES   REMARKS
BRANDON        MOSUNNY   68  45  42 VRB3      29.84S
DAUPHIN        MOSUNNY   59  50  72 N3        29.86R
ISLAND LAKE    CLOUDY    41  39  93 E8        30.06R
PILOT MOUND      N/A     66  45  45 SW3         N/A
THE PAS        CLOUDY    46  39  76 E9G17     29.98R
THOMPSON       FLURRIES  34  30  86 NE9       30.10S
WINNIPEG       PTSUNNY   61  48  63 S10       29.86R
LYNN LAKE      CLOUDY    39  36  87 SE8       30.04S
CHURCHILL      CLOUDY    32  23  69 NW9       30.18R WCI  24
GILLAM         MOSUNNY   34  23  64 NE7       30.16R
$$
                ***SASKATCHEWAN***

CITY           SKY/WX    TMP DP  RH WIND       PRES   REMARKS
ESTEVAN        PTSUNNY   63  45  51 SW15G24   29.84
KINDERSLEY     CLOUDY    50  46  87 NE14      29.83R
LLOYDMINSTER   CLOUDY    50  45  81 E6        29.88S
PRINCE ALBERT  DRIZZLE   46  45  93 E16       29.89
REGINA         PTSUNNY   57  45  62 SW9G17    29.79R
YORKTON        MOSUNNY   59  46  63 SE8       29.82R  C1F1C2F2C3F3C4F4C5F5C6F6C7F7C8F8C9F9CaFaCbFbCcFcCdFdCe!



USA.gov is the U.S. government's official web portal to all federal, state and local government web resources and services.